When you browse on this site, cookies collect data to enhance your experience and personalize the content and advertising you see.
Visit our Privacy Policy to learn more. By continuing to use the site, you agree to this use of cookies and data.
  • En España
  • Lista de países
  • Para 7 días
  • Temperatura del agua
  • El tiempo en el mapa
  • Informadores
  • user-avatar
    Iniciar sesión

    Tiempo cada hora Elda

    Hoy, 20 Febrero, Jueves

    Tiempo Temperatura Precipitaciones Viento Presión Humedad
    00:00 +8°C° 0 mm 0 mps 731 mmHg 93%
    01:00 +8°C° 0 mm 0 mps 730 mmHg 93%
    02:00 +7°C° 0 mm 0 mps 729 mmHg 94%
    03:00 +7°C° 0 mm 0 mps 729 mmHg 94%
    04:00 +6°C° 0 mm 0 mps 729 mmHg 94%
    05:00 +6°C° 0 mm 0 mps 728 mmHg 93%
    06:00 +6°C° 0 mm 0 mps 728 mmHg 92%
    07:00 +7°C° 0 mm 0 mps 728 mmHg 85%
    08:00 +9°C° 0 mm 0 mps 729 mmHg 77%
    09:00 +10°C° 0 mm 0 mps 729 mmHg 70%
    10:00 +13°C° 0 mm 1 mps 729 mmHg 61%
    11:00 +14°C° 0 mm 1 mps 729 mmHg 52%
    12:00 +15°C° 0 mm 1 mps 728 mmHg 44%
    13:00 +16°C° 0 mm 2 mps 728 mmHg 44%
    14:00 +16°C° 0 mm 2 mps 728 mmHg 45%
    15:00 +16°C° 0 mm 2 mps 727 mmHg 46%
    16:00 +15°C° 0 mm 2 mps 727 mmHg 56%
    17:00 +13°C° 0 mm 1 mps 727 mmHg 66%
    18:00 +11°C° 0 mm 1 mps 727 mmHg 75%
    19:00 +11°C° 0 mm 1 mps 728 mmHg 79%
    20:00 +10°C° 0 mm 1 mps 728 mmHg 83%
    21:00 +8°C° 0 mm 0 mps 728 mmHg 87%
    22:00 +9°C° 0 mm 1 mps 729 mmHg 87%
    23:00 +9°C° 0 mm 1 mps 729 mmHg 87%

    Mañana, 21 Febrero, Viernes

    Tiempo Temperatura Precipitaciones Viento Presión Humedad
    00:00 +8°C° 0 mm 1 mps 729 mmHg 88%
    01:00 +8°C° 0 mm 1 mps 729 mmHg 87%
    02:00 +8°C° 0 mm 1 mps 729 mmHg 87%
    03:00 +7°C° 0 mm 1 mps 729 mmHg 87%
    04:00 +7°C° 0 mm 1 mps 729 mmHg 86%
    05:00 +6°C° 0 mm 2 mps 730 mmHg 86%
    06:00 +6°C° 0 mm 2 mps 730 mmHg 86%
    13:00 +16°C° 0 mm 2 mps 732 mmHg 45%
    14:00 +16°C° 0 mm 2 mps 732 mmHg 46%
    15:00 +16°C° 0 mm 2 mps 731 mmHg 46%
    16:00 +14°C° 0 mm 2 mps 731 mmHg 56%
    17:00 +13°C° 0 mm 2 mps 731 mmHg 67%
    18:00 +11°C° 0 mm 1 mps 731 mmHg 77%
    19:00 +11°C° 0 mm 1 mps 731 mmHg 81%
    20:00 +10°C° 0 mm 1 mps 731 mmHg 84%
    21:00 +8°C° 0 mm 0 mps 732 mmHg 88%
    22:00 +8°C° 0 mm 0 mps 732 mmHg 88%
    23:00 +7°C° 0 mm 0 mps 732 mmHg 88%

    Pasado mañana, 22 Febrero, Sábado

    Tiempo Temperatura Precipitaciones Viento Presión Humedad
    00:00 +7°C° 0 mm 0 mps 732 mmHg 89%
    01:00 +7°C° 0 mm 0 mps 732 mmHg 87%
    02:00 +7°C° 0 mm 0 mps 732 mmHg 85%
    03:00 +7°C° 0 mm 0 mps 732 mmHg 84%
    04:00 +6°C° 0 mm 0 mps 732 mmHg 84%
    05:00 +6°C° 0 mm 0 mps 732 mmHg 83%
    06:00 +6°C° 0 mm 0 mps 732 mmHg 83%
    07:00 +8°C° 0 mm 0 mps 732 mmHg 76%
    08:00 +10°C° 0 mm 0 mps 733 mmHg 68%
    09:00 +12°C° 0 mm 0 mps 733 mmHg 61%
    10:00 +14°C° 0 mm 1 mps 733 mmHg 56%
    11:00 +15°C° 0 mm 1 mps 734 mmHg 52%
    12:00 +16°C° 0 mm 1 mps 734 mmHg 47%
    13:00 +18°C° 0 mm 1 mps 734 mmHg 46%
    14:00 +17°C° 0 mm 2 mps 733 mmHg 46%
    15:00 +17°C° 0 mm 2 mps 733 mmHg 46%
    16:00 +16°C° 0 mm 2 mps 733 mmHg 56%
    17:00 +14°C° 0 mm 2 mps 733 mmHg 66%
    18:00 +12°C° 0 mm 1 mps 733 mmHg 76%
    19:00 +11°C° 0 mm 1 mps 733 mmHg 81%
    20:00 +11°C° 0 mm 1 mps 733 mmHg 85%
    21:00 +9°C° 0 mm 0 mps 734 mmHg 90%
    22:00 +8°C° 0 mm 0 mps 734 mmHg 90%
    23:00 +8°C° 0 mm 0 mps 734 mmHg 91%

    23 Febrero, Domingo

    Tiempo Temperatura Precipitaciones Viento Presión Humedad
    00:00 +7°C° 0 mm 0 mps 734 mmHg 91%
    01:00 +7°C° 0 mm 0 mps 734 mmHg 91%
    02:00 +7°C° 0 mm 0 mps 733 mmHg 90%
    03:00 +7°C° 0 mm 0 mps 733 mmHg 90%
    04:00 +6°C° 0 mm 0 mps 733 mmHg 89%
    05:00 +6°C° 0 mm 0 mps 733 mmHg 88%
    06:00 +6°C° 0 mm 0 mps 733 mmHg 88%
    07:00 +8°C° 0 mm 0 mps 734 mmHg 80%
    08:00 +10°C° 0 mm 0 mps 734 mmHg 72%
    09:00 +12°C° 0 mm 0 mps 735 mmHg 64%
    10:00 +14°C° 0 mm 1 mps 735 mmHg 56%
    11:00 +15°C° 0 mm 1 mps 735 mmHg 48%
    12:00 +18°C° 0 mm 1 mps 735 mmHg 39%
    13:00 +17°C° 0 mm 2 mps 734 mmHg 39%
    14:00 +17°C° 0 mm 2 mps 734 mmHg 38%
    15:00 +18°C° 0 mm 2 mps 733 mmHg 38%
    16:00 +16°C° 0 mm 2 mps 733 mmHg 48%
    17:00 +14°C° 0 mm 1 mps 732 mmHg 57%
    18:00 +12°C° 0 mm 1 mps 732 mmHg 67%
    19:00 +11°C° 0 mm 1 mps 732 mmHg 70%
    20:00 +10°C° 0 mm 0 mps 733 mmHg 73%
    21:00 +9°C° 0 mm 0 mps 733 mmHg 77%
    22:00 +9°C° 0 mm 0 mps 733 mmHg 75%
    23:00 +8°C° 0 mm 0 mps 732 mmHg 74%

    24 Febrero, Lunes

    Tiempo Temperatura Precipitaciones Viento Presión Humedad
    00:00 +8°C° 0 mm 0 mps 732 mmHg 73%
    01:00 +8°C° 0 mm 0 mps 732 mmHg 72%
    02:00 +7°C° 0 mm 0 mps 732 mmHg 72%
    03:00 +7°C° 0 mm 0 mps 731 mmHg 71%
    04:00 +7°C° 0 mm 0 mps 731 mmHg 72%
    05:00 +7°C° 0 mm 0 mps 731 mmHg 73%
    06:00 +6°C° 0 mm 0 mps 731 mmHg 73%
    07:00 +9°C° 0 mm 0 mps 731 mmHg 64%
    08:00 +11°C° 0 mm 0 mps 732 mmHg 54%
    09:00 +13°C° 0 mm 0 mps 732 mmHg 44%
    10:00 +15°C° 0 mm 0 mps 732 mmHg 40%
    11:00 +18°C° 0 mm 1 mps 732 mmHg 36%
    12:00 +19°C° 0 mm 1 mps 732 mmHg 32%
    13:00 +20°C° 0 mm 1 mps 731 mmHg 32%
    14:00 +19°C° 0 mm 2 mps 730 mmHg 32%
    15:00 +19°C° 0 mm 2 mps 730 mmHg 32%
    16:00 +17°C° 0 mm 2 mps 729 mmHg 41%
    17:00 +15°C° 0 mm 1 mps 729 mmHg 50%
    18:00 +13°C° 0 mm 1 mps 729 mmHg 59%
    19:00 +12°C° 0 mm 1 mps 729 mmHg 61%
    20:00 +12°C° 0 mm 1 mps 729 mmHg 63%
    21:00 +10°C° 0 mm 0 mps 729 mmHg 65%
    22:00 +11°C° 0 mm 1 mps 729 mmHg 63%
    23:00 +11°C° 0 mm 1 mps 729 mmHg 60%

    25 Febrero, Martes

    Tiempo Temperatura Precipitaciones Viento Presión Humedad
    00:00 +11°C° 0 mm 1 mps 728 mmHg 58%
    01:00 +10°C° 0 mm 1 mps 728 mmHg 58%
    02:00 +10°C° 0 mm 1 mps 728 mmHg 57%
    03:00 +10°C° 0 mm 1 mps 727 mmHg 57%
    04:00 +9°C° 0 mm 2 mps 727 mmHg 56%
    05:00 +9°C° 0 mm 2 mps 727 mmHg 54%
    06:00 +9°C° 0 mm 2 mps 727 mmHg 53%
    07:00 +12°C° 0 mm 2 mps 727 mmHg 49%
    08:00 +13°C° 0 mm 3 mps 728 mmHg 44%
    09:00 +16°C° 0 mm 3 mps 728 mmHg 40%
    10:00 +18°C° 0 mm 3 mps 728 mmHg 37%
    11:00 +19°C° 0 mm 4 mps 728 mmHg 34%
    12:00 +21°C° 0 mm 4 mps 728 mmHg 31%
    13:00 +21°C° 0 mm 4 mps 727 mmHg 30%
    14:00 +22°C° 0 mm 4 mps 727 mmHg 30%
    15:00 +22°C° 0 mm 4 mps 726 mmHg 29%
    16:00 +20°C° 0 mm 4 mps 726 mmHg 34%
    17:00 +18°C° 0 mm 4 mps 726 mmHg 38%
    18:00 +17°C° 0 mm 3 mps 725 mmHg 43%
    19:00 +16°C° 0 mm 3 mps 726 mmHg 45%
    20:00 +14°C° 0 mm 3 mps 726 mmHg 46%
    21:00 +14°C° 0 mm 3 mps 726 mmHg 48%
    22:00 +13°C° 0 mm 4 mps 726 mmHg 51%
    23:00 +13°C° 0 mm 4 mps 726 mmHg 54%
    Mostrar más